Location: Unspecified
(43.4354°N, 0.0000°E)
Time: 05:05:46
(UTC+00:00)

S-56A Canister/Altair - Pass Details

Date: 04 July 2019
Orbit: 633 x 2499 km, 38.9° (Epoch: 17 August)

Event Time Altitude Azimuth Distance (km) Brightness Sun altitude
Rises 13:00:58 0° 249° (WSW) 6,145 12.4 66.4°
Reaches altitude 10° 13:05:11 10° 247° (WSW) 5,051 12.2 65.9°
Maximum altitude 13:19:11 67° 170° (S) 2,123 11.4 64.3°
Drops below altitude 10° 13:29:05 10° 91° (E) 3,686 10.9 63.0°
Sets 13:31:41 0° 88° (E) 4,444 11.2 62.7°
